Location: Jackson Park
(37.2862°N, 79.9123°W)
Time: 05:25:11
(UTC+00:00)

Vanguard 2 - All Passes

Search period start: 10 May 2026 00:00
Search period end: 20 May 2026 00:00
Orbit: 554 x 2895 km, 32.9° (Epoch: 9 May)

Date Brightness Start Highest point End Pass type
(mag) Time Alt. Az. Time Alt. Az. Time Alt. Az.
10 May - 05:15:23 10° S 05:25:53 19° SE 05:36:08 10° E visible
10 May - 07:20:12 10° SW 07:36:17 45° SSE 07:49:35 10° E visible
10 May - 09:30:34 10° WSW 09:47:24 68° S 09:58:54 10° E visible
10 May - 11:43:24 10° W 11:57:57 70° S 12:06:45 10° ESE daylight
10 May - 13:56:31 10° W 14:06:40 40° SSW 14:13:03 10° SE daylight
11 May - 05:24:49 10° S 05:37:15 25° SE 05:49:21 10° E visible
11 May - 07:31:12 10° SW 07:47:51 51° SSE 08:01:31 10° E visible
11 May - 09:42:12 10° WSW 09:59:09 71° S 10:10:39 10° E visible
11 May - 11:55:13 10° W 12:09:38 67° SSW 12:18:24 10° ESE daylight
11 May - 14:08:32 10° W 14:18:01 33° SW 14:24:13 10° SSE daylight
12 May - 05:34:51 10° SSW 05:48:35 31° SE 06:02:00 10° E visible
12 May - 07:42:24 10° SW 07:59:27 58° SSE 08:13:22 10° E visible
12 May - 09:53:54 10° WSW 10:10:54 74° S 10:22:22 10° E daylight
12 May - 12:07:03 10° W 12:21:16 62° SSW 12:29:58 10° ESE daylight
12 May - 14:20:43 10° W 14:29:17 26° SW 14:35:10 10° SSE daylight
13 May - 03:45:26 10° SSE 03:50:24 12° SE 03:55:32 10° ESE visible
13 May - 05:45:17 10° SSW 05:59:56 37° SE 06:14:19 10° E visible
13 May - 07:53:44 10° WSW 08:11:06 63° SSE 08:25:10 10° E visible
13 May - 10:05:40 10° W 10:22:39 74° S 10:34:05 10° E daylight
13 May - 12:18:54 10° W 12:32:50 56° SSW 12:41:27 10° SE daylight
13 May - 14:33:09 10° W 14:40:27 21° SW 14:45:47 10° S daylight
14 May - 03:52:49 10° SSE 04:01:35 17° SE 04:10:56 10° E visible
14 May - 05:56:01 10° SSW 06:11:21 44° SSE 06:26:26 10° E visible
14 May - 08:05:14 10° WSW 08:22:47 68° SSE 08:36:57 10° E visible
14 May - 10:17:27 10° W 10:34:24 73° S 10:45:46 10° ESE daylight
14 May - 12:30:46 10° W 12:44:18 49° SSW 12:52:49 10° SE daylight
14 May - 14:46:08 10° W 14:51:32 15° SW 14:55:52 10° SSW daylight
15 May - 04:02:01 10° S 04:12:45 22° SE 04:24:30 10° E visible
15 May - 06:06:58 10° SW 06:22:48 50° SSE 06:38:24 10° E visible
15 May - 08:16:49 10° WSW 08:34:30 72° S 08:48:42 10° E visible
15 May - 10:29:15 10° W 10:46:07 71° S 10:57:25 10° ESE daylight
15 May - 12:42:43 10° W 12:55:41 42° SSW 13:04:04 10° SE daylight
15 May - 15:00:50 10° WSW 15:02:34 11° SW 15:04:12 10° SW daylight
16 May - 04:11:56 10° S 04:23:55 28° SE 04:37:20 10° E visible
16 May - 06:18:08 10° SW 06:34:17 57° SSE 06:50:15 10° E visible
16 May - 08:28:29 10° WSW 08:46:14 75° S 09:00:26 10° E visible
16 May - 10:41:04 10° W 10:57:46 67° SSW 11:09:00 10° ESE daylight
16 May - 12:54:45 10° W 13:06:57 35° SW 13:15:08 10° SSE daylight
17 May - 04:22:18 10° SSW 04:35:08 34° SE 04:49:47 10° E visible
17 May - 06:29:27 10° SW 06:45:51 63° SSE 07:02:04 10° E visible
17 May - 08:40:12 10° W 08:58:00 76° S 09:12:10 10° E visible
17 May - 10:52:53 10° W 11:09:21 62° SSW 11:20:30 10° ESE daylight
17 May - 13:06:57 10° W 13:18:08 29° SW 13:25:57 10° SSE daylight
18 May - 02:32:12 10° SSE 02:37:40 13° SE 02:43:41 10° ESE visible
18 May - 04:32:59 10° SSW 04:46:22 41° SE 05:01:58 10° E visible
18 May - 06:40:53 10° WSW 06:57:28 68° SSE 07:13:52 10° E visible
18 May - 08:51:58 10° W 09:09:45 75° S 09:23:52 10° ESE visible
18 May - 11:04:43 10° W 11:20:51 56° SSW 11:31:55 10° SE daylight
18 May - 13:19:27 10° W 13:29:13 23° SW 13:36:27 10° S daylight
19 May - 02:40:37 10° SSE 02:48:42 18° SE 02:58:10 10° E visible
19 May - 04:43:55 10° SW 04:57:41 47° SSE 05:13:58 10° E visible
19 May - 06:52:26 10° WSW 07:09:08 72° SSE 07:25:37 10° E visible
19 May - 09:03:43 10° W 09:21:28 74° S 09:35:31 10° ESE visible
19 May - 11:16:36 10° W 11:32:16 49° SSW 11:43:11 10° SE daylight
19 May - 13:32:25 10° W 13:40:14 18° SW 13:46:26 10° SSW daylight
